Theta_e
322 320 314 311 313 314 315 316 316 316 316 315 310 308 308 307 307 307 306 306 307 308 308 309 309 309 308 311 309 308 309 309 308 310 310 312 312 312 314 313 313 314 314 314 313 312 312
323 321 319 313 312 314 314 314 315 315 315 315 315 310 308 308 308 309 309 309 309 308 308 309 309 309 310 313 308 308 309 310 309 309 309 311 312 310 312 313 314 313 313 313 314 314 314
323 323 321 319 312 312 314 314 314 315 315 315 315 315 309 308 308 309 309 309 308 308 308 309 309 309 313 311 308 308 309 310 310 309 310 307 309 312 312 313 310 311 312 310 312 314 315
323 323 322 319 318 312 312 313 313 314 315 316 316 316 311 308 308 308 308 308 308 308 309 310 309 308 313 308 309 308 308 308 309 310 308 307 307 309 311 309 309 310 311 315 310 312 313
323 322 323 322 319 318 313 312 313 313 314 316 316 316 315 308 308 308 308 308 311 309 309 310 310 311 311 308 309 309 307 309 309 308 307 306 308 309 309 312 314 313 315 313 313 309 312
323 323 323 323 321 318 317 316 311 313 314 316 316 315 317 316 311 309 309 309 310 310 309 310 310 314 310 310 308 309 307 307 308 309 311 311 311 313 312 316 318 315 314 313 312 311 308
323 323 323 324 324 321 320 317 316 312 313 315 317 316 315 317 317 311 309 308 311 315 311 311 310 310 309 308 309 310 307 308 309 312 315 311 316 314 310 309 308 309 310 312 312 308 309
322 324 323 324 324 324 322 321 317 315 312 314 317 317 315 317 316 311 310 312 309 310 314 307 308 308 307 307 313 312 308 311 313 315 311 315 317 309 306 307 308 309 312 315 313 308 308
322 324 324 324 325 324 323 322 320 316 314 312 317 317 316 317 316 311 310 310 310 309 315 313 309 311 309 309 312 313 309 308 311 314 312 316 312 307 307 309 311 315 314 313 311 310 308
322 323 323 323 325 325 324 323 322 319 313 313 316 317 316 316 315 312 311 309 309 311 318 317 315 313 310 309 313 308 305 309 311 312 312 313 307 308 309 310 308 316 308 307 309 312 317
322 322 323 323 324 324 325 324 323 321 314 312 314 318 316 314 314 312 310 309 310 312 336 314 315 311 310 312 312 313 305 308 313 312 312 316 310 310 312 311 307 314 306 308 309 312 312
321 321 321 322 323 322 323 324 324 322 315 311 312 318 315 315 312 310 310 310 314 325 337 318 315 315 315 313 313 311 309 309 307 311 311 312 307 307 310 306 305 306 309 310 311 314 321
319 320 321 321 321 322 321 323 324 321 315 312 312 318 315 313 313 311 313 316 327 329 316 318 318 315 314 315 314 312 312 313 317 320 319 315 313 307 305 310 308 311 316 324 323 323 319
317 319 320 320 320 321 322 321 323 320 314 312 312 317 316 313 312 313 314 322 327 319 318 315 315 314 317 313 314 314 314 317 309 314 318 320 323 311 306 310 313 311 313 320 319 320 318
312 316 318 320 321 322 321 320 322 317 313 312 312 317 317 313 314 315 321 326 324 318 316 317 315 317 317 314 313 315 316 316 312 313 319 318 318 307 305 305 308 311 315 309 315 311 314
318 319 321 322 322 321 321 320 319 313 312 312 312 316 318 314 316 314 322 322 319 314 312 313 319 315 318 316 316 316 317 313 311 309 310 315 319 312 305 305 304 309 307 314 313 320 322
316 318 319 321 321 320 320 318 314 313 314 312 313 317 316 316 313 319 325 321 315 310 311 315 317 316 316 316 314 316 317 313 308 307 308 311 315 316 310 311 313 307 310 309 311 313 320
316 316 317 319 320 319 318 315 314 314 315 315 312 317 313 315 320 314 320 314 309 310 308 311 311 314 315 314 315 315 317 316 307 308 311 310 314 319 319 307 306 307 312 311 319 321 315
315 315 315 316 316 316 316 315 315 316 315 312 316 315 314 313 322 320 317 315 311 310 310 311 313 311 310 313 316 314 313 311 306 308 311 309 315 321 322 311 307 311 310 309 309 313 319
316 316 315 315 316 316 316 316 317 317 316 313 315 320 315 314 312 318 319 318 317 310 310 309 311 310 310 312 311 314 314 312 306 306 307 308 314 318 324 324 321 315 310 308 312 317 318
316 316 316 316 316 316 316 316 316 316 315 314 313 317 313 321 319 317 315 316 319 319 310 309 311 311 313 316 314 312 311 311 307 306 309 311 317 316 315 317 318 319 318 318 315 314 317
312 313 314 315 315 315 316 316 316 316 316 313 317 315 311 315 312 315 315 319 319 318 315 315 312 314 312 314 316 317 314 313 316 305 309 309 314 313 315 316 316 317 315 315 315 316 316
305 307 310 312 313 314 316 317 317 316 316 313 310 309 313 315 314 316 318 318 316 314 315 311 310 310 311 313 311 310 311 314 318 317 309 308 311 313 319 317 316 319 318 317 314 312 314
298 300 303 305 308 311 313 314 315 316 316 315 311 310 313 317 316 316 315 313 315 315 315 315 312 314 314 309 310 311 311 311 314 317 315 309 311 312 318 317 322 316 312 313 314 310 307
298 298 299 299 301 305 308 310 312 314 314 313 313 311 312 317 315 315 314 315 314 314 314 314 314 313 310 311 316 317 319 318 317 314 312 312 314 315 317 320 318 317 306 307 312 309 303
296 297 298 298 298 298 300 304 306 308 310 311 312 313 311 315 315 314 315 314 316 316 315 314 311 306 308 314 317 319 323 321 320 318 303 307 310 314 317 319 322 307 303 305 307 314 295
295 296 296 296 296 297 297 299 301 303 305 307 310 312 311 313 312 310 313 314 312 314 315 313 312 310 309 315 317 317 320 318 322 319 316 312 313 314 316 319 317 293 294 298 315 301 290
295 295 295 296 296 296 295 297 299 301 303 305 308 311 312 313 312 310 311 312 312 312 315 314 314 312 312 315 317 317 317 317 315 316 316 318 318 316 314 317 318 289 294 300 289 289 287
295 295 295 295 295 296 296 296 298 300 302 304 306 308 310 311 312 311 311 311 311 312 312 313 314 313 313 314 312 307 312 310 315 318 313 319 310 315 304 298 289 287 286 285 285 285 284
Wind_Speed
20 24 26 25 22 21 20 20 21 20 18 15 11 8 7 5 5 5 6 7 7 6 3 3 3 1 2 3 4 10 9 9 9 9 7 3 5 3 4 4 3 5 3 2 2 2 3
22 24 26 26 24 22 22 22 22 22 19 15 12 9 5 3 3 4 5 5 4 3 3 5 5 4 1 3 5 10 5 6 9 9 9 7 3 3 7 3 2 2 2 2 3 3 3
23 23 26 26 26 25 24 23 24 24 21 16 13 9 7 3 1 2 2 3 2 1 1 3 3 2 8 4 4 9 3 7 9 7 4 4 2 1 2 4 1 1 3 3 4 1 2
21 22 25 27 28 27 25 24 24 24 23 17 15 10 8 3 1 2 2 2 1 2 2 3 1 2 3 0 3 10 5 4 6 8 6 5 7 7 3 4 2 1 2 3 4 1 2
19 21 24 26 27 28 28 26 25 25 25 21 15 12 8 5 1 1 1 1 2 5 1 3 1 1 3 1 3 9 7 2 2 4 6 4 4 4 2 2 3 2 4 5 5 1 2
17 19 22 25 26 27 28 28 27 26 26 23 16 13 8 5 5 3 3 4 4 4 1 1 2 2 2 3 4 7 4 4 3 0 2 3 2 2 3 4 4 4 4 6 8 0 5
15 18 20 23 24 26 27 29 29 28 27 25 18 13 12 5 6 4 3 3 2 2 7 3 2 2 1 6 1 6 6 1 1 3 2 3 2 4 3 3 1 2 6 9 10 3 8
14 17 19 21 23 25 26 29 30 30 29 27 21 14 13 7 3 5 1 3 3 1 3 1 0 1 1 3 1 8 6 0 2 2 2 2 2 1 1 2 2 4 8 6 7 2 8
13 16 17 20 22 24 26 28 30 31 31 29 23 17 15 6 2 7 9 6 4 1 0 1 1 1 2 3 1 6 5 1 4 2 3 1 3 2 2 2 5 5 5 6 7 13 5
12 15 17 19 21 22 25 27 29 31 31 30 23 17 14 5 2 3 4 3 2 1 2 1 0 1 1 1 0 2 3 2 1 0 1 1 3 2 2 3 2 5 1 4 11 9 5
12 15 16 18 21 23 24 26 28 30 31 31 23 16 13 13 2 3 0 1 1 1 2 1 0 2 1 1 2 1 2 0 1 2 3 1 4 3 4 1 2 4 3 8 5 5 5
12 14 16 18 21 22 25 26 27 30 31 31 24 15 11 5 8 4 2 1 1 2 3 1 2 3 2 2 1 3 1 3 1 2 2 1 0 2 1 1 4 7 4 2 2 2 3
13 15 16 18 20 22 24 25 26 29 30 30 23 11 11 8 2 4 3 2 2 2 2 1 2 3 2 2 1 3 2 0 2 3 1 2 3 2 2 3 3 3 6 4 3 2 4
14 16 17 18 19 20 21 24 26 27 29 30 23 7 5 9 6 5 2 2 2 1 2 0 1 2 3 2 1 2 2 3 3 2 1 2 3 5 4 1 2 2 3 3 6 6 11
14 15 16 17 18 17 18 22 25 28 28 28 19 5 2 8 6 5 2 1 2 2 1 1 2 2 1 1 2 2 4 3 3 8 3 3 4 3 1 1 1 4 3 2 4 2 5
10 13 14 14 13 13 16 21 25 26 28 24 12 2 2 7 6 2 1 2 1 0 2 1 3 2 3 2 2 2 2 4 3 4 1 1 5 2 3 2 3 3 5 2 2 4 10
11 10 10 11 10 11 15 19 22 23 26 21 5 2 4 9 4 1 2 3 3 2 3 4 3 3 6 3 3 3 3 3 4 5 1 4 3 2 1 8 8 5 3 3 3 3 4
9 9 9 9 11 12 15 16 18 21 24 17 4 3 8 7 2 1 1 1 2 1 1 3 3 4 4 3 4 5 6 5 6 7 4 4 2 6 8 3 1 2 5 8 5 5 5
10 10 10 10 10 12 13 13 14 17 21 10 4 3 4 4 3 0 1 2 2 2 3 2 3 5 1 3 5 5 3 1 7 7 5 6 4 6 4 3 1 5 5 8 5 1 11
14 13 13 13 13 12 12 12 13 13 13 10 3 3 1 2 1 0 2 3 2 3 4 4 3 3 4 5 8 4 3 0 5 3 1 5 3 13 12 15 7 6 10 12 10 4 12
13 15 15 15 15 13 13 12 11 10 9 5 1 1 3 3 3 2 2 2 9 6 5 5 4 10 8 5 4 6 5 3 3 5 3 2 7 11 20 22 21 25 22 22 17 24 11
6 7 8 10 13 13 13 12 11 9 7 1 2 2 1 3 2 3 4 6 12 11 5 5 7 6 8 8 10 10 5 4 7 3 7 5 4 4 10 20 21 25 21 23 24 23 22
11 10 10 10 9 9 10 11 11 9 4 2 2 2 2 2 2 3 5 8 3 0 4 3 4 2 4 11 12 13 10 12 9 7 10 8 5 4 8 6 8 16 16 17 6 6 8
13 13 13 12 12 12 12 11 10 9 11 9 6 4 3 4 6 7 3 4 6 4 7 8 6 6 8 2 5 8 9 12 15 18 13 8 5 3 5 5 8 2 2 3 9 8 11
12 13 14 14 13 13 14 14 13 11 10 19 12 6 3 3 6 8 12 11 10 11 7 8 13 11 3 6 7 6 4 7 9 11 13 16 7 3 3 6 7 14 5 5 5 5 10
13 12 13 14 14 14 12 12 14 15 13 9 21 19 4 2 8 11 9 9 9 8 9 6 3 1 2 2 4 5 5 3 4 3 1 2 11 6 4 5 5 4 8 13 7 4 15
15 15 14 15 16 16 16 15 14 14 13 10 9 19 8 3 4 6 5 5 4 2 3 3 2 3 4 3 3 4 4 4 5 5 3 3 2 8 9 5 4 7 14 10 5 5 12
16 16 16 16 17 18 17 17 16 16 13 10 10 11 15 2 4 7 7 6 3 3 5 1 2 3 3 3 3 3 4 3 2 1 2 5 5 5 4 5 8 19 2 4 6 5 8
16 16 16 17 17 17 18 17 15 16 14 12 10 13 15 13 3 7 18 21 18 14 2 5 2 2 4 3 2 1 3 3 2 4 3 5 4 2 3 4 8 11 12 8 8 6 9
Wind_Direction
37 33 31 33 30 31 24 23 23 21 22 26 38 42 48 61 79 91 99 107 109 103 80 46 5 350 129 68 30 337 355 12 26 57 55 64 68 117 105 99 114 91 139 156 180 208 251
37 36 34 32 31 32 31 30 29 28 27 31 32 31 37 50 79 111 117 117 110 85 92 30 39 78 150 80 330 347 10 37 42 47 46 37 70 100 94 70 28 98 167 187 198 230 246
34 32 32 30 30 30 30 30 29 28 25 25 25 26 30 44 103 129 128 134 125 62 332 350 20 132 67 60 353 0 30 43 41 50 63 43 98 15 121 117 73 119 240 207 197 178 259
30 29 31 30 30 30 28 27 27 25 23 22 22 21 24 44 89 145 157 160 310 304 320 322 341 143 87 77 26 20 37 34 46 59 84 93 88 87 34 123 109 343 259 308 139 192 138
28 24 27 28 30 30 29 26 23 22 20 19 21 24 25 38 85 194 222 261 22 309 270 359 159 199 98 360 2 2 19 12 44 73 65 87 65 66 144 223 171 42 327 324 308 232 282
25 22 21 23 27 29 27 25 22 19 17 16 14 17 14 21 10 274 256 243 295 1 273 259 54 174 69 342 313 342 355 24 41 230 168 50 62 122 36 359 8 337 325 315 284 260 263
21 20 17 15 22 24 24 24 22 19 16 13 11 9 5 335 351 332 244 263 232 170 44 51 73 41 322 318 326 12 358 310 3 63 32 30 58 39 39 47 56 285 289 289 288 308 297
13 12 12 13 18 19 20 20 19 18 14 11 10 6 360 341 345 1 135 80 61 85 106 48 331 314 297 337 318 19 4 340 36 57 328 202 81 102 144 166 254 261 295 315 292 274 309
359 3 6 7 12 15 15 15 15 14 13 10 8 7 2 2 38 39 74 94 94 91 92 70 19 360 340 342 67 350 1 41 51 72 27 346 92 132 230 251 295 292 278 332 304 316 250
346 355 358 0 4 9 11 9 10 10 10 9 6 7 8 15 80 50 55 61 49 38 233 85 12 50 309 31 136 350 15 13 97 7 168 271 136 204 219 269 267 303 199 292 305 321 310
334 345 349 352 357 1 4 5 4 4 6 6 6 8 9 36 74 55 47 86 6 276 310 70 33 329 14 328 320 113 19 188 187 159 211 109 190 201 234 244 196 313 303 303 295 282 304
322 331 340 343 348 354 354 360 360 360 1 3 3 6 8 20 51 46 47 345 303 237 262 104 304 335 308 22 14 318 51 61 57 165 227 286 72 232 306 185 222 307 276 256 210 244 249
310 319 329 335 339 345 349 352 355 356 356 358 359 3 24 37 37 358 344 265 270 225 57 29 338 3 322 298 335 12 7 226 268 275 242 204 200 179 223 255 199 298 303 301 277 240 303
303 312 319 325 330 337 347 347 351 352 352 352 353 8 33 40 12 347 310 245 252 64 253 93 274 276 264 354 196 321 269 243 208 201 198 287 263 187 164 278 320 24 323 289 296 303 306
305 310 314 319 325 338 345 345 348 350 350 347 349 357 29 1 358 351 272 275 266 205 141 251 230 258 230 206 253 286 227 243 210 195 240 224 246 123 121 136 261 142 220 29 280 232 281
328 332 335 335 338 343 343 342 346 351 352 347 342 354 2 352 349 346 265 256 254 155 151 213 252 223 266 211 254 242 232 160 196 200 301 192 278 159 118 144 81 259 133 207 205 281 294
308 310 328 336 337 339 335 342 347 355 357 352 355 300 357 340 347 192 235 244 275 228 216 214 245 250 236 262 229 235 262 199 191 158 183 176 238 143 186 204 190 160 195 197 288 238 271
301 313 316 308 314 318 324 341 347 354 360 357 1 303 347 348 263 24 234 267 347 303 217 267 276 259 243 208 243 245 245 250 159 160 189 188 236 251 249 103 31 268 221 195 226 231 240
289 299 308 314 318 320 328 339 347 354 2 351 343 285 340 10 279 234 243 263 239 207 223 199 258 226 225 252 257 226 236 44 169 180 186 180 212 292 231 143 53 241 211 216 269 22 235
278 284 293 298 300 304 311 320 329 341 351 355 305 305 295 66 67 353 303 248 263 214 238 202 238 200 192 232 224 272 249 183 173 196 132 174 231 243 258 273 261 237 226 225 209 220 258
276 283 285 284 287 293 300 305 313 328 341 348 342 308 8 283 262 206 194 260 271 274 211 214 213 230 208 248 244 228 240 265 175 168 105 158 253 252 255 267 275 272 274 265 227 241 247
306 302 304 296 288 287 289 294 302 315 328 294 275 262 160 283 281 256 209 244 270 266 235 235 236 275 225 244 251 291 226 230 264 138 160 175 238 220 262 264 261 272 265 260 255 258 256
337 330 313 311 309 303 281 268 272 277 266 242 209 175 253 230 213 237 258 267 255 216 244 231 219 285 256 262 265 267 268 272 248 215 193 174 209 202 258 279 302 280 264 240 217 226 238
328 327 327 322 307 298 295 294 283 261 248 232 218 162 194 241 217 231 249 232 249 228 264 286 279 263 293 327 290 265 255 255 248 243 206 183 192 206 272 288 255 279 9 259 238 47 18
355 350 345 336 320 308 293 291 290 283 270 246 227 193 196 240 222 245 250 254 270 269 249 256 264 250 218 273 268 265 241 264 240 240 232 222 204 236 240 222 303 297 32 9 14 83 19
340 342 342 341 335 327 320 305 297 286 291 299 246 231 199 213 207 225 260 254 259 264 274 239 236 163 187 240 220 234 236 239 266 240 91 192 232 211 187 237 249 58 9 351 327 193 15
335 335 336 335 335 331 325 324 319 306 292 288 272 251 226 229 205 161 204 232 186 227 253 274 237 200 163 199 235 230 238 218 237 228 196 165 182 224 238 262 226 355 317 311 245 1 10
328 327 326 325 324 325 323 321 319 322 311 302 269 277 229 243 231 202 215 193 208 221 250 127 298 202 189 224 226 212 232 199 278 277 201 236 195 225 213 234 247 353 67 8 348 5 6
326 324 323 323 322 321 320 314 312 313 314 296 269 267 268 240 271 233 247 243 235 255 186 195 249 208 204 205 234 257 238 215 241 277 195 245 312 331 39 53 59 40 58 44 6 4 4